• Em Portugal
  • Lista de países
  • Para 7 dias
  • Temperatura da água
  • Mapas de satélite
  • Mapa do tempo
  • Widgets de tempo
  • user-avatar
    Iniciar Sessão

    Previsão horária em Lomnica

    Hoje, 23 Setembro, Domingo

    Tempo Temperatura Precipitação Vento Pressão Humidade
    00:00 +11°C° 0 mm 3 m/s 731 mmHg 70%
    01:00 +11°C° 0 mm 4 m/s 731 mmHg 70%
    02:00 +11°C° 0 mm 4 m/s 731 mmHg 74%
    03:00 +10°C° 0 mm 3 m/s 731 mmHg 77%
    04:00 +10°C° 0 mm 3 m/s 730 mmHg 80%
    05:00 +10°C° 0 mm 3 m/s 730 mmHg 79%
    06:00 +10°C° 0 mm 3 m/s 730 mmHg 79%
    07:00 +11°C° 0 mm 3 m/s 730 mmHg 76%
    08:00 +11°C° 0 mm 3 m/s 730 mmHg 72%
    09:00 +12°C° 0 mm 4 m/s 730 mmHg 68%
    10:00 +13°C° 0 mm 4 m/s 730 mmHg 65%
    11:00 +13°C° 0.1 mm 4 m/s 729 mmHg 66%
    12:00 +13°C° 0.1 mm 4 m/s 728 mmHg 67%
    13:00 +13°C° 0.1 mm 4 m/s 728 mmHg 68%
    14:00 +12°C° 0.5 mm 4 m/s 726 mmHg 74%
    15:00 +12°C° 0.5 mm 4 m/s 725 mmHg 80%
    16:00 +11°C° 0.5 mm 4 m/s 723 mmHg 87%
    17:00 +13°C° 1.6 mm 5 m/s 722 mmHg 87%
    18:00 +14°C° 1.6 mm 6 m/s 721 mmHg 87%
    19:00 +15°C° 1.6 mm 8 m/s 719 mmHg 87%
    20:00 +13°C° 3.2 mm 6 m/s 720 mmHg 89%
    21:00 +12°C° 3.2 mm 5 m/s 720 mmHg 91%
    22:00 +10°C° 3.2 mm 4 m/s 720 mmHg 93%
    23:00 +8°C° 0.9 mm 6 m/s 722 mmHg 91%

    Amanhã, 24 Setembro, Segunda-feira

    Tempo Temperatura Precipitação Vento Pressão Humidade
    00:00 +6°C° 0.9 mm 7 m/s 723 mmHg 90%
    01:00 +6°C° 0.9 mm 8 m/s 725 mmHg 88%
    02:00 +6°C° 0.2 mm 8 m/s 727 mmHg 88%
    03:00 +6°C° 0.2 mm 7 m/s 728 mmHg 87%
    04:00 +6°C° 0.2 mm 7 m/s 729 mmHg 87%
    05:00 +5°C° 0.1 mm 7 m/s 730 mmHg 86%
    06:00 +5°C° 0.1 mm 8 m/s 731 mmHg 84%
    07:00 +5°C° 0.1 mm 8 m/s 731 mmHg 83%
    08:00 +5°C° 0.1 mm 8 m/s 732 mmHg 79%
    09:00 +6°C° 0.1 mm 8 m/s 733 mmHg 75%
    10:00 +6°C° 0.1 mm 8 m/s 734 mmHg 71%
    11:00 +7°C° 0.2 mm 9 m/s 735 mmHg 66%
    12:00 +8°C° 0.2 mm 9 m/s 735 mmHg 60%
    13:00 +9°C° 0.2 mm 10 m/s 735 mmHg 55%
    14:00 +8°C° 0.1 mm 9 m/s 735 mmHg 54%
    15:00 +8°C° 0.1 mm 9 m/s 735 mmHg 53%
    16:00 +8°C° 0.1 mm 9 m/s 735 mmHg 53%
    17:00 +8°C° 0 mm 7 m/s 736 mmHg 56%
    18:00 +7°C° 0 mm 6 m/s 736 mmHg 60%
    19:00 +6°C° 0 mm 5 m/s 737 mmHg 64%
    20:00 +5°C° 0 mm 5 m/s 737 mmHg 66%
    21:00 +5°C° 0 mm 4 m/s 738 mmHg 68%
    22:00 +4°C° 0 mm 4 m/s 739 mmHg 70%
    23:00 +4°C° 0 mm 4 m/s 739 mmHg 72%

    Depois de amanhã, 25 Setembro, Terça-feira

    Tempo Temperatura Precipitação Vento Pressão Humidade
    00:00 +4°C° 0 mm 4 m/s 739 mmHg 74%
    01:00 +3°C° 0 mm 4 m/s 740 mmHg 76%
    02:00 +3°C° 0 mm 4 m/s 740 mmHg 78%
    03:00 +3°C° 0 mm 4 m/s 740 mmHg 80%
    04:00 +1°C° 0 mm 4 m/s 741 mmHg 82%
    05:00 +3°C° 0 mm 4 m/s 741 mmHg 82%
    06:00 +3°C° 0 mm 4 m/s 742 mmHg 82%
    07:00 +3°C° 0 mm 4 m/s 742 mmHg 81%
    08:00 +5°C° 0 mm 4 m/s 743 mmHg 73%
    09:00 +6°C° 0 mm 4 m/s 743 mmHg 65%
    10:00 +8°C° 0 mm 4 m/s 744 mmHg 57%
    11:00 +10°C° 0 mm 4 m/s 744 mmHg 54%
    12:00 +10°C° 0 mm 4 m/s 744 mmHg 50%
    13:00 +11°C° 0 mm 4 m/s 744 mmHg 46%
    14:00 +11°C° 0 mm 4 m/s 744 mmHg 47%
    15:00 +11°C° 0 mm 4 m/s 743 mmHg 47%
    16:00 +11°C° 0 mm 4 m/s 743 mmHg 48%
    17:00 +9°C° 0 mm 3 m/s 744 mmHg 53%
    18:00 +8°C° 0 mm 2 m/s 744 mmHg 59%
    19:00 +6°C° 0 mm 2 m/s 744 mmHg 65%
    20:00 +6°C° 0 mm 2 m/s 744 mmHg 66%
    21:00 +6°C° 0 mm 1 m/s 744 mmHg 67%
    22:00 +6°C° 0 mm 1 m/s 745 mmHg 69%
    23:00 +5°C° 0 mm 1 m/s 744 mmHg 69%

    26 Setembro, Quarta-feira

    Tempo Temperatura Precipitação Vento Pressão Humidade
    00:00 +5°C° 0 mm 1 m/s 744 mmHg 70%
    01:00 +5°C° 0 mm 1 m/s 744 mmHg 70%
    02:00 +5°C° 0 mm 1 m/s 744 mmHg 71%
    03:00 +4°C° 0 mm 2 m/s 744 mmHg 71%
    04:00 +3°C° 0 mm 2 m/s 743 mmHg 71%
    05:00 +4°C° 0 mm 2 m/s 743 mmHg 71%
    06:00 +4°C° 0 mm 2 m/s 743 mmHg 70%
    07:00 +5°C° 0 mm 2 m/s 743 mmHg 69%
    08:00 +7°C° 0 mm 2 m/s 743 mmHg 61%
    09:00 +9°C° 0 mm 3 m/s 743 mmHg 54%
    10:00 +11°C° 0 mm 3 m/s 743 mmHg 46%
    11:00 +12°C° 0 mm 4 m/s 743 mmHg 43%
    12:00 +13°C° 0 mm 4 m/s 742 mmHg 40%
    13:00 +14°C° 0 mm 4 m/s 742 mmHg 37%
    14:00 +14°C° 0 mm 4 m/s 741 mmHg 39%
    15:00 +14°C° 0 mm 4 m/s 740 mmHg 41%
    16:00 +14°C° 0 mm 3 m/s 740 mmHg 43%
    17:00 +12°C° 0 mm 3 m/s 740 mmHg 46%
    18:00 +11°C° 0 mm 3 m/s 739 mmHg 48%
    19:00 +10°C° 0 mm 3 m/s 739 mmHg 51%
    20:00 +9°C° 0 mm 3 m/s 739 mmHg 52%
    21:00 +9°C° 0 mm 3 m/s 739 mmHg 53%
    22:00 +9°C° 0 mm 3 m/s 739 mmHg 54%
    23:00 +9°C° 0 mm 3 m/s 739 mmHg 55%

    27 Setembro, Quinta-feira

    Tempo Temperatura Precipitação Vento Pressão Humidade
    00:00 +9°C° 0 mm 3 m/s 739 mmHg 56%
    01:00 +9°C° 0 mm 3 m/s 739 mmHg 57%
    02:00 +9°C° 0 mm 3 m/s 738 mmHg 57%
    03:00 +9°C° 0 mm 3 m/s 738 mmHg 57%
    04:00 +9°C° 0 mm 3 m/s 738 mmHg 56%
    05:00 +10°C° 0 mm 3 m/s 738 mmHg 57%
    06:00 +10°C° 0 mm 3 m/s 738 mmHg 57%
    07:00 +10°C° 0 mm 3 m/s 738 mmHg 58%
    08:00 +12°C° 0 mm 4 m/s 738 mmHg 55%
    09:00 +14°C° 0 mm 4 m/s 738 mmHg 52%
    10:00 +17°C° 0 mm 4 m/s 739 mmHg 50%
    11:00 +18°C° 0 mm 4 m/s 738 mmHg 50%
    12:00 +20°C° 0 mm 4 m/s 738 mmHg 49%
    13:00 +21°C° 0 mm 4 m/s 738 mmHg 49%
    14:00 +21°C° 0 mm 4 m/s 737 mmHg 50%
    15:00 +21°C° 0 mm 3 m/s 737 mmHg 51%
    16:00 +21°C° 0 mm 3 m/s 736 mmHg 53%
    17:00 +19°C° 0 mm 3 m/s 736 mmHg 57%
    18:00 +17°C° 0 mm 2 m/s 736 mmHg 62%
    19:00 +15°C° 0 mm 2 m/s 736 mmHg 67%
    20:00 +15°C° 0 mm 2 m/s 735 mmHg 67%
    21:00 +14°C° 0 mm 2 m/s 735 mmHg 67%
    22:00 +14°C° 0 mm 2 m/s 735 mmHg 67%
    23:00 +14°C° 0 mm 2 m/s 734 mmHg 68%

    28 Setembro, Sexta-feira

    Tempo Temperatura Precipitação Vento Pressão Humidade
    00:00 +13°C° 0 mm 2 m/s 734 mmHg 69%
    01:00 +13°C° 0 mm 2 m/s 734 mmHg 70%
    02:00 +13°C° 0 mm 2 m/s 733 mmHg 71%
    03:00 +12°C° 0 mm 2 m/s 733 mmHg 72%
    04:00 +12°C° 0 mm 2 m/s 733 mmHg 73%
    05:00 +12°C° 0 mm 2 m/s 733 mmHg 73%
    06:00 +12°C° 0 mm 2 m/s 733 mmHg 72%
    07:00 +12°C° 0 mm 2 m/s 732 mmHg 71%
    08:00 +14°C° 0 mm 2 m/s 733 mmHg 64%
    09:00 +16°C° 0 mm 2 m/s 733 mmHg 57%
    10:00 +18°C° 0 mm 2 m/s 733 mmHg 49%
    11:00 +19°C° 0 mm 2 m/s 733 mmHg 47%
    12:00 +20°C° 0 mm 2 m/s 733 mmHg 45%
    13:00 +21°C° 0 mm 2 m/s 733 mmHg 43%
    14:00 +20°C° 0 mm 2 m/s 732 mmHg 46%
    15:00 +20°C° 0 mm 2 m/s 732 mmHg 48%
    16:00 +19°C° 0 mm 2 m/s 732 mmHg 51%
    17:00 +17°C° 0 mm 2 m/s 732 mmHg 62%
    18:00 +15°C° 0 mm 2 m/s 732 mmHg 72%
    19:00 +13°C° 0 mm 2 m/s 732 mmHg 83%
    20:00 +13°C° 0 mm 2 m/s 733 mmHg 85%
    21:00 +13°C° 0 mm 2 m/s 733 mmHg 87%
    22:00 +13°C° 0 mm 2 m/s 733 mmHg 90%
    23:00 +12°C° 0 mm 2 m/s 733 mmHg 89%
    Mostrar mais